STARLINK-4414 (53213 NORAD) Tracking and Keplerian Element Data

This shows tracking and keplerian element data for the satellite.

Feedback or suggestion? Click here.




ElementValue
Catalog53213
NameSTARLINK-4414
Epoch Orbit1072
Epoch Day270.14564131
Epoch Year2022
RAAN329.9688
Inclination97.6521
Eccentricity0.0001503
Argument of Perigee130.9141
Mean Anonmoly229.2213
Mean Motion15.01270312
Decay Rate-2.615E-05
L11 53213U 22084AA 22270.14564131 -.00002615 00000+0 -19903-3 0 9998
L22 53213 97.6521 329.9688 0001503 130.9141 229.2213 15.01270312 10722

Live tracking and technical data element details for STARLINK-4414 (NORAD 53213). STARLINK-4414 can be tracked NOW for your location showing map with azimuth and elevation plus other details from your city location.

Track the satellite on the map from your city or location and see movement details for azimuth, elevation, latitude, longitude, range, height, and movement on the map or in text.







IsCatalogInMostPopularTable: catalog: 53213, numindb: 3
Update: records affected: 1



GetName: 53213 STARLINK-4414

Hit Count: updated at: Thu, 29 Sep 2022 11:16:27 GMT